Погода в Раеве

Россия / Пензенская область     53°26′48″N   42°24′56″E
темп.,
°C
ветер,
м/с
пор.,
м/с
влажн.,
%
обл.,
%
осадки,
мм/ч
давл.,
гПа
погр.,
м
10 апреля, сб
сб1000:00+2ссв367878 0.0 1027120
03:00+1ссв3583100 0.0 102782
06:00+1св358492 0.0 1028100
09:00+5св4763100 0.0 1027518
12:00+7св5655100 0.0 1026984
15:00+8св5651100 0.0 1026967
18:00+6св4664100 0.0 1026606
21:00+3ссв37857 0.0 1026228
11 апреля, вс
вс1100:00+2с379227 0.0 1026157
03:00+1с41089100 0.0 1027217
06:00+1ссв4118515 0.0 1028266
09:00+5ссв5964100 0.0 1029425
12:00+9св6844100 0.0 1029775
15:00+11св6842100 0.0 1029909
18:00+9всв6966100 0.0 1030632
21:00+7всв51088100 0.3 1030420
12 апреля, пн
пн1200:00+6св4794100 0.0 1030261
03:00+5св51096100 0.0 1030204
06:00+6всв5119398 0.0 1029246
09:00+10в5780100 0.0 1030356
12:00+16в5758100 0.0 1028545
15:00+19вюв5744100 0.0 1028981
18:00+16вюв41056100 0.0 1027203
21:00+12юв41171100 0.0 1028183
13 апреля, вт
вт1300:00+10юв41179100 0.0 1028178
03:00+9юв49834 0.0 1029133
06:00+7юв410785 0.0 1029153
09:00+13юв5105483 0.0 1028378
12:00+17ююв683879 0.0 1027893
15:00+19ююв673211 0.0 10261840
18:00+17ююв35445 0.0 102676
21:00+12ююв49580 0.0 1027149
14 апреля, ср
ср1400:00+10ююв49654 0.0 1027136
03:00+9юв36675 0.0 102680
06:00+8юв477057 0.0 1026110
09:00+13юв585455 0.0 1025311
12:00+18юв67385 0.0 10241002
15:00+19юв673299 0.0 10221624
18:00+17вюв4845100 0.0 1021203
21:00+12юв41061100 0.0 1021175